• In Belarus
  • List of Countries
  • For 7 days
  • Water Temperature
  • Satellite Maps
  • Weather Map
  • Weather Widgets
  • user-avatar
    Login

    Hourly Weather Kitzbuhel

    Today, 18 February, Sunday

    Time Temperature Precipitation Wind Pressure Humidity
    00:00 0°C° 0.5 mm 1 mps 676 mmHg 97%
    01:00 -1°C° 0.5 mm 1 mps 676 mmHg 97%
    02:00 -1°C° 0.3 mm 1 mps 676 mmHg 97%
    03:00 -1°C° 0.3 mm 1 mps 677 mmHg 97%
    04:00 -1°C° 0.3 mm 1 mps 677 mmHg 97%
    05:00 -2°C° 0.2 mm 1 mps 677 mmHg 97%
    06:00 -2°C° 0.2 mm 1 mps 677 mmHg 96%
    07:00 -2°C° 0.2 mm 1 mps 677 mmHg 96%
    08:00 -2°C° 0.1 mm 1 mps 678 mmHg 95%
    09:00 -1°C° 0.1 mm 1 mps 678 mmHg 93%
    10:00 0°C° 0.1 mm 1 mps 678 mmHg 92%
    11:00 0°C° 0.1 mm 1 mps 678 mmHg 91%
    12:00 +1°C° 0.1 mm 1 mps 678 mmHg 91%
    13:00 -1°C° 0.1 mm 2 mps 678 mmHg 90%
    14:00 -1°C° 0.1 mm 2 mps 678 mmHg 90%
    15:00 -1°C° 0.1 mm 2 mps 678 mmHg 90%
    16:00 -1°C° 0.1 mm 2 mps 678 mmHg 91%
    17:00 0°C° 0.1 mm 1 mps 678 mmHg 92%
    18:00 -1°C° 0.1 mm 1 mps 678 mmHg 94%
    19:00 -2°C° 0.1 mm 1 mps 678 mmHg 95%
    20:00 -3°C° 0 mm 1 mps 678 mmHg 95%
    21:00 -3°C° 0 mm 1 mps 678 mmHg 94%
    22:00 -4°C° 0 mm 1 mps 678 mmHg 94%
    23:00 -4°C° 0 mm 1 mps 677 mmHg 93%

    Tomorrow, 19 February, Monday

    Time Temperature Precipitation Wind Pressure Humidity
    00:00 -6°C° 0 mm 1 mps 677 mmHg 92%
    01:00 -6°C° 0 mm 1 mps 677 mmHg 91%
    02:00 -6°C° 0 mm 1 mps 676 mmHg 90%
    03:00 -7°C° 0 mm 1 mps 676 mmHg 89%
    04:00 -7°C° 0 mm 1 mps 676 mmHg 88%
    05:00 -7°C° 0 mm 1 mps 675 mmHg 86%
    06:00 -7°C° 0 mm 1 mps 675 mmHg 85%
    07:00 -7°C° 0 mm 1 mps 675 mmHg 83%
    08:00 -4°C° 0 mm 1 mps 675 mmHg 81%
    09:00 -3°C° 0 mm 0 mps 676 mmHg 78%
    10:00 -1°C° 0 mm 0 mps 676 mmHg 75%
    11:00 -1°C° 0 mm 0 mps 676 mmHg 77%
    12:00 +1°C° 0 mm 1 mps 675 mmHg 78%
    13:00 +1°C° 0 mm 1 mps 675 mmHg 80%
    14:00 +1°C° 0 mm 1 mps 675 mmHg 82%
    15:00 +1°C° 0 mm 1 mps 674 mmHg 85%
    16:00 +1°C° 0 mm 1 mps 674 mmHg 88%
    17:00 0°C° 0.1 mm 1 mps 674 mmHg 90%
    18:00 -1°C° 0.1 mm 1 mps 674 mmHg 93%
    19:00 -2°C° 0.1 mm 1 mps 674 mmHg 95%
    20:00 -2°C° 0.1 mm 1 mps 674 mmHg 95%
    21:00 -3°C° 0.1 mm 1 mps 674 mmHg 95%
    22:00 -3°C° 0.1 mm 1 mps 674 mmHg 95%
    23:00 -3°C° 0 mm 1 mps 674 mmHg 95%

    Day after tomorrow, 20 February, Tuesday

    Time Temperature Precipitation Wind Pressure Humidity
    00:00 -4°C° 0 mm 1 mps 674 mmHg 95%
    01:00 -4°C° 0 mm 1 mps 673 mmHg 95%
    02:00 -4°C° 0.1 mm 1 mps 673 mmHg 95%
    03:00 -4°C° 0.1 mm 1 mps 673 mmHg 95%
    04:00 -6°C° 0.1 mm 1 mps 673 mmHg 95%
    05:00 -6°C° 0.1 mm 1 mps 672 mmHg 95%
    06:00 -6°C° 0.1 mm 1 mps 672 mmHg 94%
    07:00 -6°C° 0.1 mm 1 mps 672 mmHg 94%
    08:00 -4°C° 0 mm 1 mps 672 mmHg 92%
    09:00 -3°C° 0 mm 1 mps 672 mmHg 90%
    10:00 -2°C° 0 mm 1 mps 673 mmHg 87%
    11:00 -1°C° 0.1 mm 1 mps 672 mmHg 86%
    12:00 -1°C° 0.1 mm 1 mps 672 mmHg 84%
    13:00 0°C° 0.1 mm 1 mps 672 mmHg 83%
    14:00 0°C° 0.1 mm 1 mps 671 mmHg 84%
    15:00 -3°C° 0.1 mm 2 mps 671 mmHg 85%
    16:00 -3°C° 0.1 mm 2 mps 671 mmHg 86%
    17:00 -2°C° 0.1 mm 1 mps 671 mmHg 89%
    18:00 -3°C° 0.1 mm 1 mps 671 mmHg 92%
    19:00 -4°C° 0.1 mm 1 mps 672 mmHg 95%
    20:00 -4°C° 0.1 mm 1 mps 672 mmHg 95%
    21:00 -6°C° 0.1 mm 1 mps 672 mmHg 95%
    22:00 -6°C° 0.1 mm 1 mps 672 mmHg 95%
    23:00 -7°C° 0.1 mm 1 mps 672 mmHg 95%

    21 February, Wednesday

    Time Temperature Precipitation Wind Pressure Humidity
    00:00 -7°C° 0.1 mm 1 mps 672 mmHg 95%
    01:00 -7°C° 0.1 mm 1 mps 672 mmHg 94%
    02:00 -7°C° 0.1 mm 1 mps 672 mmHg 94%
    03:00 -8°C° 0.1 mm 1 mps 672 mmHg 93%
    04:00 -8°C° 0.1 mm 1 mps 672 mmHg 93%
    05:00 -8°C° 0.1 mm 1 mps 672 mmHg 93%
    06:00 -8°C° 0.1 mm 1 mps 672 mmHg 93%
    07:00 -8°C° 0.1 mm 1 mps 672 mmHg 93%
    08:00 -6°C° 0.1 mm 1 mps 673 mmHg 91%
    09:00 -4°C° 0.1 mm 1 mps 673 mmHg 90%
    10:00 -3°C° 0.1 mm 1 mps 673 mmHg 88%
    11:00 -2°C° 0.1 mm 1 mps 673 mmHg 87%
    12:00 -1°C° 0.1 mm 1 mps 672 mmHg 86%
    13:00 -2°C° 0.1 mm 2 mps 672 mmHg 85%
    14:00 -2°C° 0.1 mm 2 mps 672 mmHg 86%
    15:00 -3°C° 0.1 mm 2 mps 671 mmHg 87%
    16:00 -3°C° 0.1 mm 2 mps 671 mmHg 88%
    17:00 -3°C° 0.2 mm 2 mps 671 mmHg 90%
    18:00 -4°C° 0.2 mm 2 mps 671 mmHg 93%
    19:00 -3°C° 0.2 mm 1 mps 671 mmHg 95%
    20:00 -3°C° 0.2 mm 1 mps 671 mmHg 95%
    21:00 -3°C° 0.2 mm 1 mps 671 mmHg 95%
    22:00 -4°C° 0.2 mm 1 mps 671 mmHg 95%
    23:00 -4°C° 0.1 mm 1 mps 671 mmHg 95%

    22 February, Thursday

    Time Temperature Precipitation Wind Pressure Humidity
    00:00 -6°C° 0.1 mm 1 mps 670 mmHg 95%
    01:00 -6°C° 0.1 mm 1 mps 670 mmHg 95%
    02:00 -6°C° 0.1 mm 1 mps 670 mmHg 95%
    03:00 -6°C° 0.1 mm 1 mps 669 mmHg 95%
    04:00 -7°C° 0.1 mm 2 mps 669 mmHg 95%
    05:00 -7°C° 0.2 mm 2 mps 668 mmHg 95%
    06:00 -7°C° 0.2 mm 2 mps 668 mmHg 94%
    07:00 -7°C° 0.2 mm 2 mps 668 mmHg 94%
    08:00 -6°C° 0.3 mm 2 mps 668 mmHg 94%
    09:00 -6°C° 0.3 mm 2 mps 668 mmHg 93%
    10:00 -5°C° 0.3 mm 2 mps 667 mmHg 92%
    11:00 -5°C° 0.3 mm 2 mps 667 mmHg 91%
    12:00 -4°C° 0.3 mm 2 mps 667 mmHg 91%
    13:00 -3°C° 0.3 mm 2 mps 667 mmHg 90%
    14:00 -3°C° 0.2 mm 2 mps 667 mmHg 91%
    15:00 -3°C° 0.2 mm 2 mps 667 mmHg 91%
    16:00 -3°C° 0.2 mm 2 mps 666 mmHg 92%
    17:00 -4°C° 0.2 mm 2 mps 667 mmHg 93%
    18:00 -5°C° 0.2 mm 2 mps 667 mmHg 95%
    19:00 -3°C° 0.2 mm 1 mps 667 mmHg 96%
    20:00 -4°C° 0.1 mm 1 mps 667 mmHg 96%
    21:00 -4°C° 0.1 mm 1 mps 667 mmHg 96%
    22:00 -6°C° 0.1 mm 1 mps 667 mmHg 95%
    23:00 -6°C° 0 mm 1 mps 667 mmHg 95%

    23 February, Friday

    Time Temperature Precipitation Wind Pressure Humidity
    00:00 -6°C° 0 mm 1 mps 667 mmHg 94%
    01:00 -7°C° 0 mm 0 mps 667 mmHg 94%
    02:00 -7°C° 0 mm 1 mps 667 mmHg 94%
    03:00 -7°C° 0 mm 1 mps 667 mmHg 94%
    04:00 -7°C° 0 mm 1 mps 667 mmHg 94%
    05:00 -7°C° 0.1 mm 1 mps 667 mmHg 94%
    06:00 -7°C° 0.1 mm 1 mps 667 mmHg 94%
    07:00 -7°C° 0.1 mm 1 mps 668 mmHg 94%
    08:00 -4°C° 0.1 mm 1 mps 668 mmHg 93%
    09:00 -3°C° 0.1 mm 1 mps 668 mmHg 91%
    10:00 -4°C° 0.1 mm 2 mps 669 mmHg 90%
    11:00 -3°C° 0.1 mm 2 mps 668 mmHg 90%
    12:00 -3°C° 0.1 mm 2 mps 668 mmHg 89%
    13:00 -2°C° 0.1 mm 2 mps 668 mmHg 89%
    14:00 -3°C° 0.2 mm 2 mps 668 mmHg 89%
    15:00 -3°C° 0.2 mm 2 mps 668 mmHg 90%
    16:00 -3°C° 0.2 mm 2 mps 668 mmHg 91%
    17:00 -4°C° 0.2 mm 2 mps 669 mmHg 92%
    18:00 -5°C° 0.2 mm 2 mps 669 mmHg 93%
    19:00 -6°C° 0.2 mm 2 mps 669 mmHg 95%
    20:00 -6°C° 0.2 mm 2 mps 670 mmHg 95%
    21:00 -7°C° 0.2 mm 2 mps 670 mmHg 94%
    22:00 -7°C° 0.2 mm 2 mps 671 mmHg 94%
    23:00 -8°C° 0.1 mm 2 mps 671 mmHg 94%
    Show more